This is the latest recevied weather packets stored in our database for station/object BARLOW-WX. If no packets are shown the sender has not sent any weather packets the latest 10 day(s).
| Time | Temp. | Humidity | Pressure | Rain* | Wind** | Luminosity | Snow |
|---|---|---|---|---|---|---|---|
| 1787462178 | 16.11° C | 79% | 986.7 hPa | 0 mm | - | - | - |
| 1787461290 | 16.11° C | 79% | 986.7 hPa | 0 mm | - | - | - |
| 1787460378 | 16.67° C | 76% | 986.7 hPa | 0 mm | - | - | - |
| 1787459478 | 16.67° C | 81% | 986.3 hPa | 0 mm | - | - | - |
| 1787458577 | 16.67° C | 81% | 986.3 hPa | 0 mm | - | - | - |
| 1787457688 | 17.22° C | 81% | 986.3 hPa | 0 mm | - | - | - |
| 1787457085 | 17.22° C | 80% | 986.3 hPa | 0 mm | - | - | - |
| 1787455878 | 17.22° C | 80% | 986.6 hPa | 0 mm | - | - | - |
| 1787454978 | 17.78° C | 82% | 986.6 hPa | 0 mm | - | - | - |
| 1787454078 | 17.78° C | 82% | 986.6 hPa | 0 mm | - | - | - |
| 1787453177 | 17.78° C | 77% | 985.1 hPa | 0 mm | - | - | - |
| 1787452278 | 18.33° C | 82% | 985.8 hPa | 0 mm | - | - | - |
| 1787451377 | 18.33° C | 82% | 985.8 hPa | 0 mm | - | - | - |
| 1787450479 | 18.33° C | 82% | 985.8 hPa | 0 mm | - | - | - |
| 1787449578 | 18.89° C | 72% | 985.3 hPa | 0 mm | - | - | - |
| 1787448678 | 18.89° C | 72% | 985.3 hPa | 0 mm | - | - | - |
| 1787447779 | 18.89° C | 72% | 985.3 hPa | 0 mm | - | - | - |
| 1787446879 | 18.89° C | 72% | 985.3 hPa | 0 mm | - | - | - |
| 1787445976 | 18.89° C | 65% | 985.4 hPa | 0 mm | - | - | - |
| 1787445077 | 19.44° C | 68% | 985.4 hPa | 0 mm | - | - | - |
| 1787444176 | 19.44° C | 68% | 985.4 hPa | 0 mm | - | - | - |
| 1787443278 | 20° C | 68% | 985.4 hPa | 0 mm | - | - | - |
| 1787442379 | 20° C | 66% | 985.5 hPa | 0 mm | - | - | - |
| 1787441480 | 20.56° C | 62% | 984.8 hPa | 0 mm | - | - | - |
| 1787440579 | 20.56° C | 62% | 984.8 hPa | 0 mm | - | - | - |
* Rain latest hour (hover to see other rain measurements)
** Current wind speed in m/s (hover to see current wind gust speed)